Voltar ao catálogo

SL-8 DEB

AtivoLEO
NORAD 23263·DEBRIS·🇷🇺 Russia

Lançado Feb 12, 1991 de Plesetsk Cosmodrome

Loading…

Próximas Passagens (próximas 24 horas)

TLE

ObsoletoSource: Space-Track

Época: Sep 6, 2026, 15:02 UTC

1 23263U 91009CU  26249.62681748  .00000154  00000-0  17383-2 0  9994
2 23263  74.1277 122.4216 0164504  62.2820 326.5776 12.11020482645017

Acompanhe SL-8 DEB em tempo real com AllMySat

Download on the App Store